Timeline UpdatesTrip UpdatesNews PostsPvt Posts♥♥Travel TipsAdmin PostsConv PostsFollowed PostsChat RequestsBlog PostsPNR Posts

Disclaimer
Search
 
 
Fri Oct 31, 2014 15:23:55 ISTHomeTrainsΣChainsAtlasPNRForumGalleryNewsFAQTripsMembersLoginFeedback
No Recent News for this Train
Other Trains in the News **new
Latest...
.
Sun Mar 09, 2014 (12:08PM)
⇐ Return Journey: Train# 12722

12721/Dakshin SF Express

Time-Table HAS CHANGED.
Sep 01 2014 (11:45PM)
Change Departure Station:
Change Arrival Station:
Post a Train Travel TipPost a Train Travel Tip **new
Post a Comment/Question/Picture/VideoPost a Comment/Question/Picture/Video
Pantry/Catering
✓ Pantry Car Avbl
✓ Catering Avbl
RSA - Rake Sharing
Rake/Coach Composition
From HYB to KZJ, 12721 Dakshin Exp; LOCO(LGD-WAP7)-SLRD-A2-B2-PC-S8-S9-S10-S11-S12-S13-S14-GS-GS-GS-GS-SLR; From KZJ to NZM, 12721 Dakshin Exp; LOCO(LGD-WAP7)-SLR-S4-S5-S6-B1-A1-SLRD-A2-B2-PC-S8-S9-S10-S11-S12-S13-S14-GS-GS-GS-GS-SLR
Loco
Loco In-Charge :- LGD WAP-7 / LGD WAP-4
News    PNR    Forum    Time-Table    Availability    Fare Chart    Map    Arr/Dep History    Trips    Gallery    ΣChains    X/O    Timeline    
Travel Time: 0h 20m    0 halts    Distance: 9 km    Avg Speed: 27 km/hr
Type: SuperFast
Zone: SCR/South Central
Departs @ 22:30 (Avg 4m late)
Platform# 4
SMTWTFS
Hyderabad Deccan Nampally/HYB 
Arrives @ 22:50 (Avg 12m late)
Platform# 1
SMTWTFS
Secunderabad Junction/SC 

0 halts. 6 intermediate Stations between Hyderabad Deccan Nampally and Secunderabad Junction

Show ALL intermediate Stations  Show Old Time-Table

#TrkCodeStation NameX/OArrivesAvgDepartsAvgHaltPFDay#KmSpeedElevZoneAddress
1/==/HYBHyderabad Deccan Nampally (6)»  -22:30+4410.028510mSCRHyderabad, Telangana
2/==/SCSecunderabad Junction (10)•X  22:50+1222:55+145m119.257539mSCRSecunderabad 500003, Telangana
3/==/BGBhongir (3)  23:30 23:44+2423:40 23:45+2310 1m1155.697455mSCRNalgonda Dist., Telangana
4/==/ZNJangaon (2)  00:03 00:08+2800:05 00:10+272m2292.948380mSCRWarangal Dist., Telangana
5/==/KZJKazipet Junction (3)X  01:10+601:30+2620m12140.993292mSCRWarangal Dist., Telangana
6/==/JMKTJamikunta (2)X  01:53+4401:55+452m12176.495236mSCRKarimnagar Dist., Telangana
7/==/PDPLPeddapalli Junction (2)O  02:20+4802:22+482m12215.950228mSCRKarimnagar Dist., Telangana
8/==/RDMRamagundam (3)O  02:43+3902:45+382m12233.563170mSCRKarimnagar Dist. Ph : 08728 - 255237, Telangana
9/==/MCIManchiryal (3)X  02:58+4303:00+422m12247.266159mSCRAdilabad Dist., Telangana
10/==/BPABellampalli (3)X  03:18+4603:20+462m12267.161205mSCRTel:.08735 223298, Telangana
11/==/SKZRSirpur Kaghaznagar (3)X  03:58+1904:00+202m12305.552181mSCRAdilabad Dist., Telangana
12/==/BPQBalharshah Junction (5)X  05:20+2005:30+2210m--2375.343188mCRBallarpur. Ph : 07172 - 240341, Maharashtra
13/==/CDChandrapur Maharashtra (3)  05:49+2605:50+281m--2389.063194mCRChandrapur 442401, Maharashtra
14/==/BUXBhandak (5)  06:13+2806:14+281m--2413.363207mCRChandrapur, Maharashtra
15/==/WRRWarora (2)X  06:35+2606:36+271m--2435.478214mCRWarora, Maharashtra
16/==/HGTHinganghat (3)  07:06+2707:07+281m--2474.544228mCRHinganghat, Maharashtra
17/==/SEGMSewagram Junction (5)  07:52+1607:53+191m32507.676279mCRWardha, Maharashtra
18/==/SNISindi (2)  08:16+2008:17+221m--2536.977258mCRWardha, Maharashtra
19/==/AJNIAjni (3)  08:51+2208:52+231m12580.88310mCRNagpur 440003, Maharashtra
20/==/NGPNagpur Junction (8)X  09:15+1409:25+1610m12583.870314mCRNagpur 440001, Maharashtra
21/==/KATLKatol (2)  10:17+1810:18+191m--2644.760 CRKatol. District Nagpur, Maharashtra
22/==/NRKRNarkher Junction (4)X  10:43+1610:44+171m--2669.861411mCRDistrict Nagpur, Maharashtra
23/==/PARPandhurna (2)  11:02+1611:03+181m--2688.261481mCRDistt: Chhindwara, Madhya Pradesh
24/==/MTYMultai (2)X  11:43+2411:45+242m--2729.065762mCRMultai, Madhya Pradesh
25/==/AMLAAmla Junction (5)O  12:06+2212:08+222m--2751.872733mCRAmla Distt. Betul, Madhya Pradesh
26/==/BZUBetul (3)X  12:27+2412:29+262m--2774.753644mCRBetul, Madhya Pradesh
27/==/GDYAGhoradongri (3)X  13:10+2513:12+252m12810.645 CRBetul, Madhya Pradesh
28/==/ETItarsi Junction (7)  14:45+614:55+910m12881.060329mWCRItarsi 461111, Madhya Pradesh
29/==/HBDHoshangabad (2)O  15:14 15:13+1415:15+131 2m--2899.164308mWCRHoshangabad, Madhya Pradesh
30/==/HBJBhopal HabibGanj (5)X  16:19 16:18+2916:20+301 2m32966.515496mWCRHabibGanj, Madhya Pradesh
31/==/BPLBhopal Junction (6)X  16:45+2216:50+245m22972.8100497mWCRBhopal, Madhya Pradesh
32/==/BHSVidisha (3)X  17:23 17:22+3317:24+331 2m121026.381 WCRVidisha, Madhya Pradesh
33/==/BAQGanj Basoda (4)XO  17:54 17:53+3717:55+371 2m121065.678 WCRVidisha, Madhya Pradesh
34/==/MABAMandi Bamora (3)X  18:18 18:17+4218:19+421 2m121094.125413mWCRState Highway 14, Madhya Pradesh
35/==/BINABina Junction (5)X  19:00+2219:05+245m321111.373414mWCRJn Pt - KATNI/GUNA/ BPL/JHS, Madhya Pradesh
36/==/LARLalitpur (3)X  19:58 19:57+2919:59+291 2m321174.290373mNCRLalitpur, Uttar Pradesh
37/==/BABBabina (3)X  20:43 20:42+3120:44+311 2m221239.142285mNCRBabina, Uttar Pradesh
38/==/JHSJhansi Junction (7)X  21:18 21:20+2921:28 21:30+3110m421264.675259mNCRJhansi, Uttar Pradesh
39/==/DAADatia (2)XO  21:51 21:50+4221:52+421 2m--21289.679264mNCRDatia, Madhya Pradesh
40/==/GWLGwalior Junction (4)  22:47+4522:52+455m221362.393214mNCRGwalior, Madhya Pradesh
41/==/MRAMorena (3)  23:18 23:17+5823:19+581 2m221400.855176mNCRMorena, Madhya Pradesh
42/==/AGCAgra Cantt. (6)X  00:45+4200:50+455m231480.375174mNCRAgra, Uttar Pradesh
43/==/MTJMathura Junction (10)X  01:33+5701:38+575m231534.063179mNCRMathura, Uttar Pradesh
44/==/BVHBallabgarh (5)  03:19 03:18+3503:20+351 2m331639.144203mNRFaridabad, Haryana
45/==/FDBFaridabad (4)  03:30 03:31+3303:33+333 2m231647.139206mNRold Faridabad, Haryana
46/==/NZMDelhi Hazrat Nizamuddin (7)  04:00 04:05+29-631667.9-209mNRNew Delhi 110013, Delhi NCT
Scroll to Top
Scroll to Bottom